Date,TemperatureHighF,TemperatureAvgF,TemperatureLowF,DewpointHighF,DewpointAvgF,DewpointLowF,HumidityHigh,HumidityAvg,HumidityLow,PressureMaxIn,PressureMinIn,WindSpeedMaxMPH,WindSpeedAvgMPH,GustSpeedMaxMPH,PrecipitationSumIn
2013-9-1,63.1,58.8,55.0,61.2,57.8,54.5,99,96,91,29.97,29.91,14,3,16,0.00
2013-9-2,68.5,62.8,59.4,65.7,61.2,58.8,99,95,84,29.98,29.90,16,3,19,0.00
2013-9-3,66.4,61.0,57.4,62.2,59.5,56.8,100,95,86,30.02,29.94,18,4,21,0.00
2013-9-4,66.7,61.3,58.3,62.4,59.6,57.4,98,94,85,30.05,29.96,20,6,24,0.00
2013-9-5,65.7,60.7,57.4,60.4,58.2,55.2,98,92,82,30.04,29.96,22,3,26,0.00
2013-9-6,76.5,66.3,54.9,60.8,55.5,51.6,96,71,47,30.00,29.84,12,1,12,0.01
2013-9-7,76.3,66.6,55.0,61.5,55.4,50.2,97,69,46,29.88,29.83,10,2,12,0.00
2013-9-8,61.7,56.4,53.8,60.1,55.5,52.9,100,97,92,29.89,29.80,11,3,12,0.00
2013-9-9,62.4,56.8,53.2,59.2,56.0,52.7,100,97,89,29.83,29.74,15,4,15,0.00
2013-9-10,64.9,60.0,56.1,62.2,58.4,55.6,99,94,85,29.91,29.76,23,7,27,0.01
2013-9-11,65.7,62.2,60.6,59.5,58.5,57.4,94,88,80,30.01,29.90,15,5,18,0.00
2013-9-12,64.0,59.9,57.0,62.1,58.7,56.5,98,96,88,29.99,29.91,16,3,20,0.02
2013-9-13,57.9,56.0,54.0,57.4,55.4,53.4,98,98,96,29.92,29.80,20,6,24,0.01
2013-9-14,61.2,56.7,54.0,59.0,55.6,53.4,99,96,90,29.84,29.77,21,7,23,0.00
2013-9-15,64.9,59.9,55.8,59.5,56.6,54.3,97,89,77,29.89,29.79,18,4,19,0.00
2013-9-16,64.0,59.1,56.1,61.0,57.2,55.6,98,94,79,29.91,29.81,21,4,23,0.00
2013-9-17,62.4,58.5,55.2,57.0,55.3,52.0,97,90,78,29.90,29.84,30,5,31,0.00
2013-9-18,68.2,58.7,52.9,57.7,53.3,50.9,94,83,60,29.93,29.85,14,1,16,0.00
2013-9-19,67.8,58.3,51.6,57.9,53.4,50.0,95,84,66,29.87,29.78,13,1,14,0.01
2013-9-20,66.2,59.1,53.1,63.0,57.5,51.6,98,95,88,29.88,29.78,13,4,15,0.01
2013-9-21,63.3,59.7,56.1,60.8,58.1,55.0,98,94,87,29.91,29.81,19,4,20,0.48
2013-9-22,63.9,58.1,53.4,58.1,55.4,52.5,98,91,79,30.02,29.91,16,1,18,0.01
2013-9-23,71.1,61.8,55.8,61.7,56.9,52.3,96,85,62,30.03,29.96,10,1,15,0.00
2013-9-24,64.2,58.6,55.2,58.8,55.4,52.7,95,89,82,30.02,29.92,23,-4,27,0.01
2013-9-25,60.6,56.4,53.4,53.2,51.1,48.2,94,83,70,29.95,29.84,27,4,27,0.00
2013-9-26,64.0,56.5,50.4,50.7,47.4,42.1,87,72,50,29.99,29.85,15,1,16,0.00
2013-9-27,72.3,61.8,53.2,50.7,44.2,38.3,89,54,31,30.10,29.99,11,1,13,0.00
2013-9-28,69.3,59.0,52.0,56.5,52.2,45.9,96,79,49,30.10,30.03,13,2,18,0.00
2013-9-29,67.5,60.7,54.9,62.1,58.5,53.8,98,93,80,30.12,30.06,11,2,12,0.00
2013-9-30,64.2,60.5,54.7,63.3,59.2,48.6,98,96,76,30.08,29.99,12,2,12,0.01